Simultaneous Nadir Overpasses (SNOs) Predictions

Prediction of SNOs between GOES-16 and AQUA Satellite Orbit:

Table of predicted SNOs for the next 14.0 days since TLE Epoch: 7/3/2021
Index Date Time (GOES-16) GOES-16 Lat,Lon AQUA Lat,Lon Distance(km) Time Diff (sec)
1 07/03/2021 06:32:02 -0.05, -75.12 -0.33, -73.86 143.29 80
2 07/03/2021 18:50:45 0.06, -75.13 -0.79, -79.05 446.25 80
3 07/05/2021 06:19:52 -0.06, -75.12 -0.98, -70.91 479.08 80
4 07/05/2021 18:38:35 0.07, -75.13 -0.14, -76.10 110.32 80
5 07/07/2021 18:29:05 0.07, -75.14 0.51, -73.16 225.87 80
6 07/08/2021 06:47:41 -0.08, -75.13 0.59, -78.31 361.51 80
7 07/10/2021 06:35:30 -0.08, -75.14 -0.01, -75.35 25.14 80
8 07/12/2021 06:26:00 -0.08, -75.15 -0.66, -72.41 312.19 80
9 07/12/2021 18:44:44 0.09, -75.16 -0.45, -77.60 277.35 80
10 07/14/2021 18:35:14 0.09, -75.18 0.21, -74.65 60.66 80
11 07/16/2021 18:23:03 0.09, -75.21 0.82, -71.69 399.24 80
